Time,TemperatureF,DewpointF,PressureIn,WindDirection,WindDirectionDegrees,WindSpeedMPH,WindSpeedGustMPH,Humidity,HourlyPrecipIn,Conditions,Clouds,dailyrainin,SoftwareType,DateUTC
2015-04-24 00:11:00,38.7,24.4,29.94,ESE,112,0.0,-999.0,56,-99.99,,,0.00,Acu-Link.com,2015-04-24 05:11:00,
2015-04-24 00:26:00,39.0,25.1,29.94,SSE,157,2.2,-999.0,57,-99.99,,,0.00,Acu-Link.com,2015-04-24 05:26:00,
2015-04-24 00:41:00,39.9,21.3,29.93,SE,135,2.7,-999.0,47,-99.99,,,0.00,Acu-Link.com,2015-04-24 05:41:00,
2015-04-24 00:56:00,40.6,21.5,29.93,ESE,112,0.0,-999.0,46,-99.99,,,0.00,Acu-Link.com,2015-04-24 05:56:00,
2015-04-24 01:12:00,40.6,22.0,29.93,ESE,112,0.0,-999.0,47,-99.99,,,0.00,Acu-Link.com,2015-04-24 06:12:00,
2015-04-24 01:42:00,41.2,22.5,29.92,ESE,112,2.2,-999.0,47,-99.99,,,0.00,Acu-Link.com,2015-04-24 06:42:00,
2015-04-24 01:57:00,41.7,21.4,29.91,SSE,157,2.2,-999.0,44,-99.99,,,0.00,Acu-Link.com,2015-04-24 06:57:00,
2015-04-24 02:12:00,42.6,20.6,29.91,SSE,157,2.7,-999.0,41,-99.99,,,0.00,Acu-Link.com,2015-04-24 07:12:00,
2015-04-24 02:27:00,43.0,19.8,29.90,South,180,2.7,-999.0,39,-99.99,,,0.00,Acu-Link.com,2015-04-24 07:27:00,
2015-04-24 02:42:00,43.3,19.4,29.90,ESE,112,1.7,-999.0,38,-99.99,,,0.00,Acu-Link.com,2015-04-24 07:42:00,
2015-04-24 02:58:00,43.3,18.8,29.89,SSE,157,2.2,-999.0,37,-99.99,,,0.00,Acu-Link.com,2015-04-24 07:58:00,
2015-04-24 03:13:00,43.0,18.5,29.89,ESE,112,0.0,-999.0,37,-99.99,,,0.00,Acu-Link.com,2015-04-24 08:13:00,
2015-04-24 03:28:00,42.8,19.0,29.88,SE,135,2.2,-999.0,38,-99.99,,,0.00,Acu-Link.com,2015-04-24 08:28:00,
2015-04-24 03:43:00,42.6,18.8,29.88,East,90,1.7,-999.0,38,-99.99,,,0.00,Acu-Link.com,2015-04-24 08:43:00,
2015-04-24 03:58:00,42.3,19.1,29.88,ESE,112,0.0,-999.0,39,-99.99,,,0.00,Acu-Link.com,2015-04-24 08:58:00,
2015-04-24 04:13:00,42.1,20.1,29.87,ESE,112,2.2,-999.0,41,-99.99,,,0.00,Acu-Link.com,2015-04-24 09:13:00,
2015-04-24 04:28:00,42.3,20.3,29.87,ESE,112,1.7,-999.0,41,-99.99,,,0.00,Acu-Link.com,2015-04-24 09:28:00,
2015-04-24 04:43:00,42.4,20.4,29.88,SSE,157,0.0,-999.0,41,-99.99,,,0.00,Acu-Link.com,2015-04-24 09:43:00,
2015-04-24 04:58:00,42.1,22.8,29.88,ESE,112,1.7,-999.0,46,-99.99,,,0.00,Acu-Link.com,2015-04-24 09:58:00,
2015-04-24 05:13:00,40.5,28.5,29.87,ESE,112,2.7,-999.0,62,-99.99,,,0.00,Acu-Link.com,2015-04-24 10:13:00,
2015-04-24 05:28:00,39.4,29.7,29.88,WNW,292,0.0,-999.0,68,-99.99,,,0.00,Acu-Link.com,2015-04-24 10:28:00,
2015-04-24 05:44:00,38.5,30.3,29.89,NE,45,0.0,-999.0,72,-99.99,,,0.00,Acu-Link.com,2015-04-24 10:44:00,
2015-04-24 05:59:00,38.3,30.1,29.89,NE,45,0.0,-999.0,72,-99.99,,,0.00,Acu-Link.com,2015-04-24 10:59:00,
2015-04-24 06:14:00,38.5,29.9,29.89,ENE,67,0.0,-999.0,71,-99.99,,,0.00,Acu-Link.com,2015-04-24 11:14:00,
2015-04-24 06:29:00,38.7,29.4,29.89,ESE,112,1.7,-999.0,69,-99.99,,,0.00,Acu-Link.com,2015-04-24 11:29:00,
2015-04-24 06:44:00,39.4,29.0,29.89,SSE,157,2.2,-999.0,66,-99.99,,,0.00,Acu-Link.com,2015-04-24 11:44:00,
2015-04-24 06:59:00,39.7,28.5,29.87,East,90,2.7,-999.0,64,-99.99,,,0.00,Acu-Link.com,2015-04-24 11:59:00,
2015-04-24 07:14:00,39.9,28.0,29.87,SE,135,2.2,-999.0,62,-99.99,,,0.00,Acu-Link.com,2015-04-24 12:14:00,
2015-04-24 07:29:00,40.1,28.1,29.86,ESE,112,2.7,-999.0,62,-99.99,,,0.00,Acu-Link.com,2015-04-24 12:29:00,
2015-04-24 07:44:00,40.5,27.3,29.85,East,90,3.2,-999.0,59,-99.99,,,0.00,Acu-Link.com,2015-04-24 12:44:00,
2015-04-24 07:59:00,40.6,27.4,29.85,ESE,112,2.2,-999.0,59,-99.99,,,0.00,Acu-Link.com,2015-04-24 12:59:00,
2015-04-24 08:14:00,40.8,27.6,29.85,ESE,112,1.7,-999.0,59,-99.99,,,0.00,Acu-Link.com,2015-04-24 13:14:00,
2015-04-24 08:29:00,40.8,27.6,29.86,ESE,112,5.3,-999.0,59,-99.99,,,0.00,Acu-Link.com,2015-04-24 13:29:00,
2015-04-24 08:45:00,41.0,28.6,29.85,ESE,112,2.7,-999.0,61,-99.99,,,0.00,Acu-Link.com,2015-04-24 13:45:00,
2015-04-24 09:00:00,40.3,29.5,29.86,NE,45,1.7,-999.0,65,-99.99,,,0.00,Acu-Link.com,2015-04-24 14:00:00,
2015-04-24 09:15:00,40.3,31.7,29.87,East,90,1.7,-999.0,71,-99.99,,,0.00,Acu-Link.com,2015-04-24 14:15:00,
2015-04-24 09:30:00,39.4,33.4,29.86,ESE,112,1.7,-999.0,79,-99.99,,,0.01,Acu-Link.com,2015-04-24 14:30:00,
2015-04-24 09:45:00,38.7,33.4,29.85,ESE,112,3.2,-999.0,81,-99.99,,,0.02,Acu-Link.com,2015-04-24 14:45:00,
2015-04-24 10:00:00,38.3,32.7,29.84,ESE,112,3.2,-999.0,80,-99.99,,,0.02,Acu-Link.com,2015-04-24 15:00:00,
2015-04-24 10:16:00,38.7,34.0,29.83,SE,135,3.2,-999.0,83,-99.99,,,0.04,Acu-Link.com,2015-04-24 15:16:00,
2015-04-24 10:31:00,38.7,34.3,29.83,SSE,157,2.7,-999.0,84,-99.99,,,0.05,Acu-Link.com,2015-04-24 15:31:00,
2015-04-24 10:46:00,38.7,34.9,29.84,ESE,112,1.1,-999.0,86,-99.99,,,0.07,Acu-Link.com,2015-04-24 15:46:00,
2015-04-24 11:01:00,39.2,35.4,29.84,ESE,112,1.7,-999.0,86,-99.99,,,0.08,Acu-Link.com,2015-04-24 16:01:00,
2015-04-24 11:16:00,39.2,35.4,29.84,ESE,112,0.0,-999.0,86,-99.99,,,0.09,Acu-Link.com,2015-04-24 16:16:00,
2015-04-24 11:31:00,39.4,35.6,29.84,SSE,157,2.2,-999.0,86,-99.99,,,0.09,Acu-Link.com,2015-04-24 16:31:00,
2015-04-24 11:46:00,39.2,35.4,29.83,SE,135,3.7,-999.0,86,-99.99,,,0.10,Acu-Link.com,2015-04-24 16:46:00,
2015-04-24 12:01:00,39.2,35.7,29.82,ESE,112,2.7,-999.0,87,-99.99,,,0.13,Acu-Link.com,2015-04-24 17:01:00,
2015-04-24 12:16:00,39.6,36.3,29.80,ESE,112,4.7,-999.0,88,-99.99,,,0.14,Acu-Link.com,2015-04-24 17:16:00,
2015-04-24 12:31:00,40.3,37.3,29.78,SE,135,4.7,-999.0,89,-99.99,,,0.17,Acu-Link.com,2015-04-24 17:31:00,
2015-04-24 12:47:00,41.0,38.0,29.80,SE,135,3.2,-999.0,89,-99.99,,,0.19,Acu-Link.com,2015-04-24 17:47:00,
2015-04-24 13:02:00,41.5,38.5,29.80,East,90,4.2,-999.0,89,-99.99,,,0.19,Acu-Link.com,2015-04-24 18:02:00,
2015-04-24 13:17:00,41.9,38.9,29.80,SSE,157,3.2,-999.0,89,-99.99,,,0.19,Acu-Link.com,2015-04-24 18:17:00,
2015-04-24 13:32:00,41.2,37.9,29.79,SSE,157,4.2,-999.0,88,-99.99,,,0.19,Acu-Link.com,2015-04-24 18:32:00,
2015-04-24 13:57:00,40.8,38.4,29.77,SSE,157,3.7,-999.0,91,-99.99,,,0.21,Acu-Link.com,2015-04-24 18:57:00,
2015-04-24 14:12:00,42.6,40.7,29.77,East,90,3.7,-999.0,93,-99.99,,,0.22,Acu-Link.com,2015-04-24 19:12:00,
2015-04-24 14:27:00,43.2,40.8,29.77,SE,135,4.7,-999.0,91,-99.99,,,0.23,Acu-Link.com,2015-04-24 19:27:00,
2015-04-24 14:42:00,43.7,41.0,29.77,SSE,157,3.7,-999.0,90,-99.99,,,0.23,Acu-Link.com,2015-04-24 19:42:00,
2015-04-24 14:57:00,43.3,40.9,29.76,ESE,112,6.3,-999.0,91,-99.99,,,0.23,Acu-Link.com,2015-04-24 19:57:00,
2015-04-24 15:12:00,44.4,41.7,29.76,ESE,112,4.7,-999.0,90,-99.99,,,0.23,Acu-Link.com,2015-04-24 20:12:00,
2015-04-24 15:27:00,45.1,41.5,29.76,SE,135,4.2,-999.0,87,-99.99,,,0.23,Acu-Link.com,2015-04-24 20:27:00,
2015-04-24 15:43:00,45.9,42.0,29.76,ESE,112,2.7,-999.0,86,-99.99,,,0.23,Acu-Link.com,2015-04-24 20:43:00,
2015-04-24 15:58:00,46.2,41.9,29.75,East,90,5.3,-999.0,85,-99.99,,,0.23,Acu-Link.com,2015-04-24 20:58:00,
2015-04-24 16:13:00,45.7,41.5,29.74,SSE,157,3.7,-999.0,85,-99.99,,,0.23,Acu-Link.com,2015-04-24 21:13:00,
2015-04-24 16:28:00,45.9,41.3,29.74,SSE,157,3.2,-999.0,84,-99.99,,,0.23,Acu-Link.com,2015-04-24 21:28:00,
2015-04-24 16:43:00,45.9,41.6,29.74,SSE,157,2.7,-999.0,85,-99.99,,,0.23,Acu-Link.com,2015-04-24 21:43:00,
2015-04-24 16:59:00,45.9,41.6,29.74,SSE,157,3.7,-999.0,85,-99.99,,,0.23,Acu-Link.com,2015-04-24 21:59:00,
2015-04-24 17:15:00,45.7,41.5,29.75,ESE,112,2.7,-999.0,85,-99.99,,,0.23,Acu-Link.com,2015-04-24 22:15:00,
2015-04-24 17:30:00,45.7,41.5,29.75,West,270,2.7,-999.0,85,-99.99,,,0.23,Acu-Link.com,2015-04-24 22:30:00,
2015-04-24 17:45:00,46.0,41.7,29.75,SSE,157,2.2,-999.0,85,-99.99,,,0.23,Acu-Link.com,2015-04-24 22:45:00,
2015-04-24 18:00:00,46.0,41.7,29.75,SSE,157,2.7,-999.0,85,-99.99,,,0.23,Acu-Link.com,2015-04-24 23:00:00,
2015-04-24 18:15:00,46.2,41.9,29.74,SE,135,2.2,-999.0,85,-99.99,,,0.23,Acu-Link.com,2015-04-24 23:15:00,
2015-04-24 18:30:00,46.2,41.9,29.75,ESE,112,2.2,-999.0,85,-99.99,,,0.23,Acu-Link.com,2015-04-24 23:30:00,
2015-04-24 18:46:00,46.2,42.2,29.75,ESE,112,3.2,-999.0,86,-99.99,,,0.23,Acu-Link.com,2015-04-24 23:46:00,
2015-04-24 19:01:00,46.4,42.4,29.75,SSE,157,2.2,-999.0,86,-99.99,,,0.23,Acu-Link.com,2015-04-25 00:01:00,
2015-04-24 19:16:00,46.2,41.9,29.75,SSE,157,2.2,-999.0,85,-99.99,,,0.23,Acu-Link.com,2015-04-25 00:16:00,
2015-04-24 19:31:00,46.0,41.7,29.75,SE,135,2.2,-999.0,85,-99.99,,,0.23,Acu-Link.com,2015-04-25 00:31:00,
2015-04-24 19:46:00,46.0,41.1,29.76,SE,135,2.2,-999.0,83,-99.99,,,0.23,Acu-Link.com,2015-04-25 00:46:00,
2015-04-24 20:01:00,47.1,42.2,29.76,SSE,157,3.7,-999.0,83,-99.99,,,0.23,Acu-Link.com,2015-04-25 01:01:00,
2015-04-24 20:17:00,45.7,40.5,29.76,ESE,112,4.2,-999.0,82,-99.99,,,0.23,Acu-Link.com,2015-04-25 01:17:00,
2015-04-24 20:32:00,45.5,40.6,29.76,ESE,112,2.2,-999.0,83,-99.99,,,0.23,Acu-Link.com,2015-04-25 01:32:00,